M0NPQ Weather Reports


time (UTC)temp
C
wind
direction
speed
KPH
gust
KPH
rain 1hr
cm
rain 24hr
cm
rain mn
cm
humidity
%
barometer
mb
20260508013603 11 254 0.0 1.6 0.00 0.00 0.00 84 1016.6
20260508012703 11 255 0.0 1.6 0.00 0.00 0.00 84 1016.5
20260508011803 11 254 0.0 3.2 0.00 0.00 0.00 84 1016.6
20260508010905 11 256 0.0 1.6 0.00 0.00 0.00 84 1016.7
20260508010003 11 262 0.0 1.6 0.00 0.00 0.00 84 1016.6
20260508005403 11 255 0.0 1.6 0.00 0.00 0.00 84 1016.6
20260508004718 11 227 0.0 1.6 0.00 0.00 0.00 84 1016.7
20260508003817 11 261 0.0 1.6 0.00 0.00 0.00 84 1016.7
20260508002704 10 253 0.0 1.6 0.00 0.00 0.00 84 1016.7
20260508001803 10 261 0.0 1.6 0.00 0.00 0.00 84 1016.8
20260508000903 10 266 0.0 3.2 0.00 0.00 0.00 84 1016.9
20260508000005 10 254 0.0 3.2 0.00 0.00 0.00 84 1017.0
20260507235403 10 258 0.0 3.2 0.00 0.00 0.00 84 1016.8
20260507234503 10 264 1.6 3.2 0.00 0.00 0.00 84 1017.1
20260507233603 10 257 0.0 3.2 0.00 0.00 0.00 83 1017.1
20260507232703 10 259 0.0 3.2 0.00 0.00 0.00 83 1017.1
20260507231803 10 262 1.6 3.2 0.00 0.00 0.00 83 1017.3
20260507230904 10 259 0.0 3.2 0.00 0.00 0.00 83 1017.1
20260507230005 10 264 1.6 3.2 0.00 0.00 0.00 83 1017.1
20260507225618 10 260 0.0 3.2 0.00 0.00 0.00 83 1017.3
20260507224719 10 257 0.0 4.8 0.00 0.00 0.00 82 1017.3
20260507223603 10 263 1.6 3.2 0.00 0.00 0.00 82 1017.2
20260507222918 10 261 0.0 3.2 0.00 0.00 0.00 82 1017.2
20260507221803 10 257 1.6 3.2 0.00 0.00 0.00 82 1017.3
20260507220903 10 258 1.6 9.7 0.00 0.00 0.00 82 1017.2
20260507220004 10 262 1.6 3.2 0.00 0.00 0.00 82 1017.1
20260507215617 10 261 1.6 4.8 0.00 0.00 0.00 81 1017.3
20260507214716 10 261 1.6 4.8 0.00 0.00 0.00 82 1017.5
20260507213818 10 258 0.0 3.2 0.00 0.00 0.00 82 1017.3
20260507212703 10 258 0.0 3.2 0.00 0.00 0.00 82 1017.4
20260507211803 10 252 1.6 4.8 0.00 0.00 0.00 82 1017.2
20260507210903 10 250 0.0 4.8 0.00 0.00 0.00 82 1017.5
20260507210217 10 257 1.6 4.8 0.00 0.00 0.00 82 1017.3
20260507205403 10 260 1.6 3.2 0.00 0.00 0.00 82 1017.3
20260507204718 10 259 1.6 4.8 0.00 0.00 0.00 82 1017.3
20260507203604 10 256 0.0 3.2 0.00 0.00 0.00 81 1017.2
20260507202703 10 262 0.0 4.8 0.00 0.00 0.00 81 1016.9
20260507201803 10 255 0.0 4.8 0.00 0.00 0.00 81 1017.0
20260507200903 10 252 1.6 4.8 0.00 0.00 0.00 81 1017.0
20260507200221 10 255 1.6 6.4 0.00 0.00 0.00 80 1016.8
20260507195616 10 253 0.0 4.8 0.00 0.00 0.00 80 1016.6
20260507194503 10 250 0.0 3.2 0.00 0.00 0.00 79 1016.8
20260507193605 10 256 0.0 3.2 0.00 0.00 0.00 79 1016.8
20260507192703 10 250 0.0 4.8 0.00 0.00 0.00 79 1016.4
20260507192018 10 85 0.0 3.2 0.00 0.00 0.00 78 1016.7
20260507190903 10 245 0.0 4.8 0.00 0.00 0.00 78 1016.5
20260507190004 10 240 1.6 4.8 0.00 0.00 0.00 77 1016.7
20260507185403 10 248 1.6 4.8 0.00 0.00 0.00 76 1016.7
20260507184503 10 235 0.0 3.2 0.00 0.00 0.00 77 1016.6
20260507183604 11 236 1.6 6.4 0.00 0.00 0.00 76 1016.6
20260507182703 11 112 1.6 4.8 0.00 0.00 0.00 76 1016.5
20260507181803 11 271 1.6 6.4 0.00 0.00 0.00 75 1016.3
20260507181117 11 85 1.6 4.8 0.00 0.00 0.00 75 1016.4
20260507180003 11 260 1.6 4.8 0.00 0.00 0.00 75 1016.4
20260507175404 11 230 1.6 6.4 0.00 0.00 0.00 74 1016.6
20260507174503 11 258 1.6 6.4 0.00 0.00 0.00 73 1016.4
20260507173603 11 191 0.0 6.4 0.00 0.00 0.00 73 1016.5
20260507172703 11 77 1.6 3.2 0.00 0.00 0.00 73 1016.5
20260507171803 11 74 1.6 4.8 0.00 0.00 0.00 72 1016.4
20260507170903 11 71 1.6 4.8 0.00 0.00 0.00 72 1016.3
20260507170003 11 243 1.6 4.8 0.00 0.00 0.00 71 1016.4
20260507165403 11 89 0.0 3.2 0.00 0.00 0.00 70 1016.6
20260507164504 12 91 1.6 3.2 0.00 0.00 0.00 69 1016.4
20260507163603 12 70 1.6 4.8 0.00 0.00 0.00 69 1016.7
20260507162703 12 82 1.6 4.8 0.00 0.00 0.00 69 1016.6
20260507161803 12 147 1.6 4.8 0.00 0.00 0.00 67 1016.5
20260507161118 12 95 1.6 6.4 0.00 0.00 0.00 67 1016.8
20260507160219 12 73 1.6 4.8 0.00 0.00 0.00 66 1016.6
20260507155403 13 77 1.6 9.7 0.00 0.00 0.00 64 1016.6
20260507154504 13 26 1.6 9.7 0.00 0.00 0.00 60 1016.5
20260507153604 14 211 1.6 9.7 0.00 0.00 0.00 59 1016.5
20260507152703 14 90 1.6 6.4 0.00 0.00 0.00 59 1016.8
20260507151805 14 255 1.6 6.4 0.00 0.00 0.00 59 1016.7
20260507151118 15 281 1.6 6.4 0.00 0.00 0.00 57 1016.6
20260507150003 14 87 1.6 6.4 0.00 0.00 0.00 59 1016.6
20260507145403 14 256 1.6 6.4 0.00 0.00 0.00 60 1016.7
20260507144505 15 83 1.6 6.4 0.00 0.00 0.00 56 1016.8
20260507143817 15 71 1.6 11.3 0.00 0.00 0.00 58 1016.9
20260507142919 14 90 1.6 6.4 0.00 0.00 0.00 59 1016.7
20260507142018 15 327 1.6 4.8 0.00 0.00 0.00 57 1016.8
20260507140903 15 253 1.6 4.8 0.00 0.00 0.00 58 1016.9
20260507140003 13 237 1.6 6.4 0.00 0.00 0.00 59 1017.0
20260507135618 13 257 1.6 6.4 0.00 0.00 0.00 60 1017.0
20260507134505 13 250 1.6 6.4 0.00 0.00 0.00 61 1017.0
20260507133603 13 245 1.6 4.8 0.00 0.00 0.00 60 1017.0
20260507132703 13 267 1.6 9.7 0.00 0.00 0.00 60 1017.0
20260507131803 14 264 1.6 6.4 0.00 0.00 0.00 58 1017.1
20260507130903 14 260 1.6 6.4 0.00 0.00 0.00 57 1017.2
20260507130003 14 320 1.6 6.4 0.00 0.00 0.00 56 1017.1
20260507125403 15 71 0.0 3.2 0.00 0.00 0.00 56 1017.0
20260507124719 14 57 1.6 6.4 0.00 0.00 0.00 57 1016.9
20260507123603 13 259 1.6 6.4 0.00 0.00 0.00 59 1016.9
20260507122705 14 111 1.6 4.8 0.00 0.00 0.00 56 1016.8
20260507121805 14 123 1.6 6.4 0.00 0.00 0.00 57 1017.0
20260507120903 13 263 1.6 6.4 0.00 0.00 0.00 58 1017.1
20260507120003 13 248 1.6 4.8 0.00 0.00 0.00 59 1017.0
20260507115404 13 244 1.6 9.7 0.00 0.00 0.00 59 1016.9
20260507114503 13 262 1.6 6.4 0.00 0.00 0.00 60 1017.1
20260507113603 13 271 1.6 9.7 0.00 0.00 0.00 59 1017.1
20260507112703 13 172 1.6 4.8 0.00 0.00 0.00 58 1017.1
20260507112017 13 332 1.6 6.4 0.00 0.00 0.00 59 1017.1
20260507110904 12 261 1.6 4.8 0.00 0.00 0.00 62 1017.2
20260507110003 12 221 1.6 6.4 0.00 0.00 0.00 62 1017.2
20260507105403 12 272 1.6 6.4 0.00 0.00 0.00 63 1017.2
20260507104503 13 52 0.0 4.8 0.00 0.00 0.00 62 1017.2
20260507103603 12 244 1.6 4.8 0.00 0.00 0.00 63 1017.2
20260507102917 12 256 1.6 4.8 0.00 0.00 0.00 62 1017.4
20260507101804 12 262 0.0 3.2 0.00 0.00 0.00 65 1017.1
20260507101120 12 278 1.6 3.2 0.00 0.00 0.00 64 1017.1
20260507100003 12 291 0.0 3.2 0.00 0.00 0.00 64 1017.1
20260507095403 12 27 0.0 3.2 0.00 0.00 0.00 64 1017.0
20260507094503 12 110 0.0 3.2 0.00 0.00 0.00 65 1017.0
20260507093603 11 105 0.0 3.2 0.00 0.00 0.00 65 1017.2
20260507092703 11 251 0.0 3.2 0.00 0.00 0.00 66 1017.1
20260507091803 11 257 0.0 3.2 0.00 0.00 0.00 66 1016.9
20260507090903 11 251 0.0 3.2 0.00 0.00 0.00 65 1017.1
20260507090004 11 272 0.0 3.2 0.00 0.00 0.00 65 1016.9
20260507085616 12 266 0.0 3.2 0.00 0.00 0.00 64 1016.8
20260507084503 12 252 0.0 3.2 0.00 0.00 0.00 64 1016.8
20260507083603 11 261 0.0 1.6 0.00 0.00 0.00 66 1016.7
20260507082704 11 101 0.0 3.2 0.00 0.00 0.00 65 1016.7
20260507081804 11 208 0.0 3.2 0.00 0.00 0.00 66 1016.6
20260507080903 11 265 0.0 1.6 0.00 0.00 0.00 67 1016.5
20260507080005 11 266 0.0 1.6 0.00 0.00 0.00 68 1016.5
20260507075403 11 0 0.0 0.0 0.00 0.00 0.00 69 1016.5
20260507074503 11 272 0.0 1.6 0.00 0.00 0.00 68 1016.5
20260507073603 11 0 0.0 0.0 0.00 0.00 0.00 67 1016.3
20260507072705 11 0 0.0 0.0 0.00 0.00 0.00 68 1016.3
20260507071803 10 0 0.0 0.0 0.00 0.00 0.00 67 1016.1
20260507070903 10 265 0.0 1.6 0.00 0.00 0.00 67 1016.1
20260507070005 10 11 0.0 1.6 0.00 0.00 0.00 68 1016.2
20260507065403 10 282 0.0 1.6 0.00 0.00 0.00 68 1016.3
20260507064719 10 86 0.0 1.6 0.00 0.00 0.00 69 1016.1
20260507063603 10 0 0.0 0.0 0.00 0.00 0.00 69 1016.1
20260507062703 10 261 0.0 3.2 0.00 0.00 0.00 70 1016.2
20260507062017 10 209 0.0 3.2 0.00 0.00 0.00 71 1016.1
20260507060903 10 241 0.0 1.6 0.00 0.00 0.00 70 1015.9
20260507060004 10 0 0.0 0.0 0.00 0.00 0.00 71 1016.0
20260507055404 9 233 0.0 1.6 0.00 0.00 0.00 72 1015.9
20260507054505 9 0 0.0 0.0 0.00 0.00 0.00 72 1015.9
20260507053603 9 0 0.0 0.0 0.00 0.00 0.00 73 1016.0
20260507052703 9 0 0.0 0.0 0.00 0.00 0.00 73 1015.9
20260507051803 9 0 0.0 0.0 0.00 0.00 0.00 73 1015.8
20260507050903 9 0 0.0 0.0 0.00 0.00 0.00 73 1015.7
20260507050217 9 0 0.0 0.0 0.00 0.00 0.00 73 1015.9
20260507045403 9 0 0.0 0.0 0.00 0.00 0.00 73 1015.7
20260507044503 9 0 0.0 0.0 0.00 0.00 0.00 74 1015.6
20260507043603 8 0 0.0 0.0 0.00 0.00 0.00 74 1015.5
20260507042705 8 0 0.0 0.0 0.00 0.00 0.00 74 1015.5
20260507041805 8 0 0.0 0.0 0.00 0.00 0.00 74 1015.4
20260507040903 8 262 0.0 1.6 0.00 0.00 0.00 74 1015.3
20260507040005 8 0 0.0 0.0 0.00 0.00 0.00 74 1015.3
20260507035403 8 249 0.0 1.6 0.00 0.00 0.00 74 1015.3
20260507034503 8 0 0.0 0.0 0.00 0.00 0.00 73 1015.1
20260507033603 8 0 0.0 0.0 0.00 0.00 0.00 73 1014.9
20260507032704 8 0 0.0 0.0 0.00 0.00 0.00 73 1015.1
20260507032018 8 0 0.0 0.0 0.00 0.00 0.00 73 1015.1
20260507030903 8 0 0.0 1.6 0.00 0.00 0.00 72 1015.0
20260507030003 9 122 0.0 1.6 0.00 0.00 0.00 72 1014.9
20260507025404 9 228 0.0 1.6 0.00 0.00 0.00 72 1015.0
20260507024503 9 228 0.0 1.6 0.00 0.00 0.00 72 1015.2
20260507023603 9 0 0.0 0.0 0.00 0.00 0.00 73 1015.2
20260507022704 9 100 0.0 1.6 0.00 0.00 0.00 72 1015.1
20260507021805 9 0 0.0 0.0 0.00 0.00 0.00 72 1015.1
20260507020903 9 0 0.0 0.0 0.00 0.00 0.00 72 1015.2
20260507020218 9 0 0.0 0.0 0.00 0.00 0.00 72 1015.2
20260507015403 9 111 0.0 1.6 0.00 0.00 0.00 72 1015.2
20260507014503 9 282 0.0 1.6 0.00 0.00 0.00 72 1014.8